,,,PA_Meas_PMT16A,,PR_Meas_QMR101_102,,RH_Meas_QMH101,,SR_Meas_QMS101,,TA_Meas_QMH101,,GenWind,,GenWind,
date,time,status,PA,status,PR,status,RH,status,SR,status,TA,status,DirAvg,status,SpdAvg,
2010-09-08, 00:00:04,VALID,1001.88,VALID,0,VALID,93.3637,VALID,0,VALID,23.1354,VALID,269,VALID,0.789844,
2010-09-08, 00:01:04,VALID,1001.89,VALID,0,VALID,93.3484,VALID,0,VALID,23.1159,VALID,251,VALID,0.417578,
2010-09-08, 00:02:04,VALID,1001.89,VALID,0,VALID,93.3408,VALID,0,VALID,23.1159,VALID,295,VALID,0.683203,
2010-09-08, 00:03:04,VALID,1001.9,VALID,0,VALID,93.3255,VALID,0,VALID,23.0769,VALID,298,VALID,0.722266,
2010-09-08, 00:04:04,VALID,1001.92,VALID,0,VALID,93.2874,VALID,0,VALID,23.0786,VALID,319,VALID,0.597656,
2010-09-08, 00:05:04,VALID,1001.89,VALID,0,VALID,93.2874,VALID,0,VALID,23.0573,VALID,319,VALID,0.423438,
2010-09-08, 00:06:04,VALID,1001.89,VALID,0,VALID,93.2797,VALID,0,VALID,23.0573,VALID,306,VALID,0.591797,
2010-09-08, 00:07:04,VALID,1001.88,VALID,0,VALID,93.2645,VALID,0,VALID,23.0183,VALID,298,VALID,0.528906,
2010-09-08, 00:08:04,VALID,1001.89,VALID,0,VALID,93.234,VALID,0,VALID,23.0396,VALID,298,VALID,0.314453,
2010-09-08, 00:09:04,VALID,1001.83,VALID,0,VALID,93.2416,VALID,0,VALID,22.9988,VALID,298,VALID,0.390234,
2010-09-08, 00:10:04,VALID,1001.84,VALID,0,VALID,93.2111,VALID,0,VALID,22.9988,VALID,298,VALID,0.497656,
2010-09-08, 00:11:04,VALID,1001.88,VALID,0,VALID,93.2187,VALID,0,VALID,22.9988,VALID,298,VALID,0.04375,
2010-09-08, 00:12:04,VALID,1001.9,VALID,0,VALID,93.2263,VALID,0,VALID,22.9988,VALID,298,VALID,0.176172,
2010-09-08, 00:13:04,VALID,1001.86,VALID,0,VALID,93.2034,VALID,0,VALID,22.9988,VALID,298,VALID,0.353125,
2010-09-08, 00:14:04,VALID,1001.83,VALID,0,VALID,93.1805,VALID,0,VALID,22.9988,VALID,225,VALID,0.5375,
2010-09-08, 00:15:04,VALID,1001.82,VALID,0,VALID,93.1577,VALID,0,VALID,23.0378,VALID,225,VALID,0.271484,
2010-09-08, 00:16:04,VALID,1001.78,VALID,0,VALID,93.1424,VALID,0,VALID,23.0378,VALID,225,VALID,0,
2010-09-08, 00:17:04,VALID,1001.76,VALID,0,VALID,93.1195,VALID,0,VALID,23.0786,VALID,225,VALID,0,
2010-09-08, 00:18:04,VALID,1001.76,VALID,0,VALID,93.0661,VALID,0,VALID,23.0573,VALID,225,VALID,0,
2010-09-08, 00:19:04,VALID,1001.74,VALID,0,VALID,93.0508,VALID,0,VALID,23.0769,VALID,225,VALID,0,
2010-09-08, 00:20:04,VALID,1001.75,VALID,0,VALID,93.0127,VALID,0,VALID,23.0964,VALID,223,VALID,0.2125,
2010-09-08, 00:21:04,VALID,1001.73,VALID,0,VALID,92.9898,VALID,0,VALID,23.1159,VALID,213,VALID,0.536719,
2010-09-08, 00:22:04,VALID,1001.73,VALID,0,VALID,92.9211,VALID,0,VALID,23.1549,VALID,221,VALID,0.176953,
2010-09-08, 00:23:04,VALID,1001.72,VALID,0,VALID,92.8372,VALID,0,VALID,23.1939,VALID,221,VALID,0.0269531,
2010-09-08, 00:24:04,VALID,1001.68,VALID,0,VALID,92.7685,VALID,0,VALID,23.1939,VALID,221,VALID,0,
2010-09-08, 00:25:05,VALID,1001.67,VALID,0,VALID,92.7151,VALID,0,VALID,23.1744,VALID,221,VALID,0.0015625,
2010-09-08, 00:26:05,VALID,1001.67,VALID,0,VALID,92.677,VALID,0,VALID,23.1939,VALID,221,VALID,0,
2010-09-08, 00:27:05,VALID,1001.69,VALID,0,VALID,92.6923,VALID,0,VALID,23.1744,VALID,221,VALID,0,
2010-09-08, 00:28:05,VALID,1001.67,VALID,0,VALID,92.6999,VALID,0,VALID,23.1762,VALID,221,VALID,0,
2010-09-08, 00:29:05,VALID,1001.65,VALID,0,VALID,92.7457,VALID,0,VALID,23.1354,VALID,221,VALID,0,
2010-09-08, 00:30:05,VALID,1001.64,VALID,0,VALID,92.7762,VALID,0,VALID,23.1354,VALID,221,VALID,0.264453,
2010-09-08, 00:31:05,VALID,1001.61,VALID,0,VALID,92.822,VALID,0,VALID,23.1159,VALID,221,VALID,0.242188,
2010-09-08, 00:32:05,VALID,1001.57,VALID,0,VALID,92.8601,VALID,0,VALID,23.1159,VALID,221,VALID,0.507813,
2010-09-08, 00:33:05,VALID,1001.54,VALID,0,VALID,92.8983,VALID,0,VALID,23.0946,VALID,345,VALID,0.660547,
2010-09-08, 00:34:05,VALID,1001.55,VALID,0,VALID,92.9517,VALID,0,VALID,23.0964,VALID,12,VALID,0.70625,
2010-09-08, 00:35:05,VALID,1001.53,VALID,0,VALID,92.9745,VALID,0,VALID,23.0964,VALID,12,VALID,0.681641,
2010-09-08, 00:36:05,VALID,1001.48,VALID,0,VALID,93.028,VALID,0,VALID,23.0769,VALID,12,VALID,0.603516,
2010-09-08, 00:37:05,VALID,1001.47,VALID,0,VALID,93.0356,VALID,0,VALID,23.0769,VALID,12,VALID,0.652344,
2010-09-08, 00:38:05,VALID,1001.43,VALID,0,VALID,93.0966,VALID,0,VALID,23.0573,VALID,12,VALID,0.566016,
2010-09-08, 00:39:05,VALID,1001.41,VALID,0,VALID,93.1043,VALID,0,VALID,23.0573,VALID,12,VALID,0.583594,
2010-09-08, 00:40:05,VALID,1001.38,VALID,0,VALID,93.15,VALID,0,VALID,23.0786,VALID,12,VALID,0.732813,
2010-09-08, 00:41:05,VALID,1001.33,VALID,0,VALID,93.1577,VALID,0,VALID,23.0573,VALID,12,VALID,0.874219,
2010-09-08, 00:42:05,VALID,1001.31,VALID,0,VALID,93.1577,VALID,0,VALID,23.0378,VALID,9,VALID,0.662891,
2010-09-08, 00:43:05,VALID,1001.31,VALID,0,VALID,93.2187,VALID,0,VALID,23.0573,VALID,9,VALID,0.557031,
2010-09-08, 00:44:05,VALID,1001.27,VALID,0,VALID,93.234,VALID,0,VALID,23.0573,VALID,9,VALID,0.507813,
2010-09-08, 00:45:05,VALID,1001.28,VALID,0,VALID,93.2568,VALID,0,VALID,23.0769,VALID,9,VALID,0.91875,
2010-09-08, 00:46:05,VALID,1001.26,VALID,0,VALID,93.2721,VALID,0,VALID,23.0769,VALID,9,VALID,0.996484,
2010-09-08, 00:47:05,VALID,1001.22,VALID,0,VALID,93.2721,VALID,0,VALID,23.0964,VALID,3,VALID,1.16484,
2010-09-08, 00:48:05,VALID,1001.24,VALID,0,VALID,93.2797,VALID,0,VALID,23.0964,VALID,342,VALID,1.06953,
2010-09-08, 00:49:05,VALID,1001.18,VALID,0,VALID,93.295,VALID,0,VALID,23.1354,VALID,341,VALID,0.958594,
2010-09-08, 00:50:05,VALID,1001.19,VALID,0,VALID,93.295,VALID,0,VALID,23.1744,VALID,321,VALID,0.513281,
2010-09-08, 00:51:05,VALID,1001.2,VALID,0,VALID,93.3103,VALID,0,VALID,23.1549,VALID,282,VALID,0.759375,
2010-09-08, 00:52:05,VALID,1001.19,VALID,0,VALID,93.2874,VALID,0,VALID,23.1159,VALID,302,VALID,0.942578,
2010-09-08, 00:53:05,VALID,1001.2,VALID,0,VALID,93.295,VALID,0,VALID,23.1159,VALID,304,VALID,0.555078,
2010-09-08, 00:54:05,VALID,1001.18,VALID,0,VALID,93.2797,VALID,0,VALID,23.1159,VALID,295,VALID,0.405469,
2010-09-08, 00:55:05,VALID,1001.17,VALID,0,VALID,93.2874,VALID,0,VALID,23.0964,VALID,271,VALID,0.658594,
2010-09-08, 00:56:05,VALID,1001.15,VALID,0,VALID,93.2874,VALID,0,VALID,23.0964,VALID,259,VALID,0.630469,
2010-09-08, 00:57:05,VALID,1001.1,VALID,0,VALID,93.2568,VALID,0,VALID,23.0573,VALID,268,VALID,0.331641,
2010-09-08, 00:58:05,VALID,1001.08,VALID,0,VALID,93.2416,VALID,0,VALID,23.0573,VALID,296,VALID,0.367188,
2010-09-08, 00:59:05,VALID,1001.07,VALID,0,VALID,93.2034,VALID,0,VALID,23.0378,VALID,319,VALID,0.391406,
2010-09-08, 01:00:05,VALID,1001.06,VALID,0,VALID,93.1805,VALID,0,VALID,23.0591,VALID,359,VALID,0.732031,
2010-09-08, 01:01:05,VALID,1001.03,VALID,0,VALID,93.1348,VALID,0,VALID,23.0183,VALID,5,VALID,0.667188,
2010-09-08, 01:02:05,VALID,1001.04,VALID,0,VALID,93.1424,VALID,0,VALID,22.9988,VALID,25,VALID,0.905859,
2010-09-08, 01:03:05,VALID,1001.02,VALID,0,VALID,93.089,VALID,0,VALID,22.9971,VALID,35,VALID,1.2543,
2010-09-08, 01:04:05,VALID,1001.02,VALID,0,VALID,93.0814,VALID,0,VALID,23.0183,VALID,32,VALID,1.50195,
2010-09-08, 01:05:05,VALID,1001.01,VALID,0,VALID,93.1119,VALID,0,VALID,22.9988,VALID,25,VALID,1.60547,
2010-09-08, 01:06:05,VALID,1000.98,VALID,0,VALID,93.1043,VALID,0,VALID,22.9988,VALID,21,VALID,1.59453,
2010-09-08, 01:07:05,VALID,1000.97,VALID,0,VALID,93.1119,VALID,0,VALID,22.9988,VALID,23,VALID,1.525,
2010-09-08, 01:08:05,VALID,1000.98,VALID,0,VALID,93.1271,VALID,0,VALID,22.9988,VALID,26,VALID,1.8168,
2010-09-08, 01:09:05,VALID,1000.99,VALID,0,VALID,93.1195,VALID,0,VALID,22.9793,VALID,30,VALID,2.10156,
2010-09-08, 01:10:05,VALID,1000.97,VALID,0,VALID,93.1348,VALID,0,VALID,22.9598,VALID,34,VALID,2.03203,
2010-09-08, 01:11:05,VALID,1000.94,VALID,0,VALID,93.1577,VALID,0,VALID,22.9598,VALID,27,VALID,1.4418,
2010-09-08, 01:12:05,VALID,1000.98,VALID,0,VALID,93.1805,VALID,0,VALID,22.9598,VALID,34,VALID,1.63984,
2010-09-08, 01:13:05,VALID,1000.95,VALID,0,VALID,93.2263,VALID,0,VALID,22.9403,VALID,32,VALID,1.91797,
2010-09-08, 01:14:05,VALID,1000.96,VALID,0,VALID,93.2645,VALID,0,VALID,22.9208,VALID,29,VALID,2.04297,
2010-09-08, 01:15:05,VALID,1000.95,VALID,0,VALID,93.2568,VALID,0,VALID,22.88,VALID,32,VALID,2.27617,
2010-09-08, 01:16:05,VALID,1000.96,VALID,0,VALID,93.3103,VALID,0,VALID,22.9013,VALID,33,VALID,1.88398,
2010-09-08, 01:17:05,VALID,1000.97,VALID,0,VALID,93.3255,VALID,0,VALID,22.8818,VALID,39,VALID,1.2332,
2010-09-08, 01:18:05,VALID,1001.02,VALID,0,VALID,93.356,VALID,0,VALID,22.9013,VALID,53,VALID,1.46328,
2010-09-08, 01:19:05,VALID,1001.04,VALID,0,VALID,93.3789,VALID,0,VALID,22.8623,VALID,53,VALID,1.26133,
2010-09-08, 01:20:05,VALID,1001.06,VALID,0,VALID,93.4094,VALID,0,VALID,22.841,VALID,76,VALID,0.781641,
2010-09-08, 01:21:05,VALID,1001.04,VALID,0,VALID,93.44,VALID,0,VALID,22.9013,VALID,101,VALID,0.805859,
2010-09-08, 01:22:05,VALID,1001.06,VALID,0,VALID,93.4552,VALID,0,VALID,22.9013,VALID,105,VALID,1.3,
2010-09-08, 01:23:05,VALID,1001.07,VALID,0,VALID,93.4781,VALID,0,VALID,22.9013,VALID,108,VALID,1.36367,
2010-09-08, 01:24:05,VALID,1001.07,VALID,0,VALID,93.501,VALID,0,VALID,22.8995,VALID,124,VALID,1.06406,
2010-09-08, 01:25:05,VALID,1001.05,VALID,0,VALID,93.5315,VALID,0,VALID,22.9403,VALID,114,VALID,0.633984,
2010-09-08, 01:26:05,VALID,1001.04,VALID,0,VALID,93.5315,VALID,0,VALID,22.9403,VALID,121,VALID,0.971484,
2010-09-08, 01:27:05,VALID,1001.01,VALID,0,VALID,93.5163,VALID,0,VALID,22.9403,VALID,119,VALID,0.272656,
2010-09-08, 01:28:05,VALID,1000.97,VALID,0,VALID,93.5239,VALID,0,VALID,22.9403,VALID,121,VALID,0.544922,
2010-09-08, 01:29:05,VALID,1000.99,VALID,0,VALID,93.5315,VALID,0,VALID,22.9208,VALID,121,VALID,0.514063,
2010-09-08, 01:30:05,VALID,1000.97,VALID,0,VALID,93.5391,VALID,0,VALID,22.9403,VALID,117,VALID,0.884766,
2010-09-08, 01:31:05,VALID,1000.98,VALID,0,VALID,93.5163,VALID,0,VALID,22.9403,VALID,115,VALID,1.08867,
2010-09-08, 01:32:05,VALID,1000.99,VALID,0,VALID,93.4857,VALID,0,VALID,22.9598,VALID,116,VALID,0.959766,
2010-09-08, 01:33:05,VALID,1000.98,VALID,0,VALID,93.4781,VALID,0,VALID,22.9793,VALID,118,VALID,1.11094,
2010-09-08, 01:34:05,VALID,1000.98,VALID,0,VALID,93.4857,VALID,0,VALID,22.9793,VALID,115,VALID,0.871094,
2010-09-08, 01:35:05,VALID,1000.97,VALID,0,VALID,93.4323,VALID,0,VALID,22.9793,VALID,112,VALID,1.11797,
2010-09-08, 01:36:05,VALID,1000.95,VALID,0,VALID,93.4018,VALID,0,VALID,22.9988,VALID,89,VALID,1.06445,
2010-09-08, 01:37:05,VALID,1000.96,VALID,0,VALID,93.3866,VALID,0,VALID,22.9793,VALID,110,VALID,1.16172,
2010-09-08, 01:38:05,VALID,1000.93,VALID,0,VALID,93.3484,VALID,0,VALID,22.9793,VALID,109,VALID,1.11836,
2010-09-08, 01:39:05,VALID,1000.94,VALID,0,VALID,93.3179,VALID,0,VALID,22.9988,VALID,105,VALID,0.734375,
2010-09-08, 01:40:05,VALID,1000.87,VALID,0,VALID,93.3103,VALID,0,VALID,22.9793,VALID,117,VALID,0.646875,
2010-09-08, 01:41:05,VALID,1000.84,VALID,0,VALID,93.3103,VALID,0,VALID,22.9988,VALID,115,VALID,0.910547,
2010-09-08, 01:42:05,VALID,1000.84,VALID,0,VALID,93.2721,VALID,0,VALID,22.9793,VALID,67,VALID,0.627344,
2010-09-08, 01:43:05,VALID,1000.77,VALID,0,VALID,93.2874,VALID,0,VALID,22.9988,VALID,50,VALID,0.780859,
2010-09-08, 01:44:05,VALID,1000.78,VALID,0,VALID,93.2568,VALID,0,VALID,22.9988,VALID,33,VALID,1.2082,
2010-09-08, 01:45:05,VALID,1000.77,VALID,0,VALID,93.2416,VALID,0,VALID,22.9598,VALID,32,VALID,1.11719,
2010-09-08, 01:46:05,VALID,1000.79,VALID,0,VALID,93.2263,VALID,0,VALID,22.9793,VALID,25,VALID,1.14063,
2010-09-08, 01:47:05,VALID,1000.78,VALID,0,VALID,93.2111,VALID,0,VALID,22.9385,VALID,20,VALID,1.11133,
2010-09-08, 01:48:05,VALID,1000.78,VALID,0,VALID,93.1958,VALID,0,VALID,22.9403,VALID,15,VALID,1.01055,
2010-09-08, 01:49:05,VALID,1000.76,VALID,0,VALID,93.1805,VALID,0,VALID,22.9598,VALID,10,VALID,1.41133,
2010-09-08, 01:50:05,VALID,1000.75,VALID,0,VALID,93.1653,VALID,0,VALID,22.9403,VALID,357,VALID,1.44844,
2010-09-08, 01:51:05,VALID,1000.77,VALID,0,VALID,93.1424,VALID,0,VALID,22.9598,VALID,9,VALID,1.34023,
2010-09-08, 01:52:05,VALID,1000.73,VALID,0,VALID,93.1424,VALID,0,VALID,22.9385,VALID,10,VALID,1.00898,
2010-09-08, 01:53:05,VALID,1000.69,VALID,0,VALID,93.1119,VALID,0,VALID,22.9385,VALID,1,VALID,1.26211,
2010-09-08, 01:54:05,VALID,1000.69,VALID,0,VALID,93.1043,VALID,0,VALID,22.9598,VALID,2,VALID,0.619141,
2010-09-08, 01:55:05,VALID,1000.68,VALID,0,VALID,93.1348,VALID,0,VALID,22.9385,VALID,2,VALID,0.716797,
2010-09-08, 01:56:05,VALID,1000.67,VALID,0,VALID,93.1119,VALID,0,VALID,22.9403,VALID,6,VALID,1.12148,
2010-09-08, 01:57:05,VALID,1000.67,VALID,0,VALID,93.1043,VALID,0,VALID,22.9598,VALID,6,VALID,0.564062,
2010-09-08, 01:58:05,VALID,1000.66,VALID,0,VALID,93.0966,VALID,0,VALID,22.9385,VALID,353,VALID,0.391016,
2010-09-08, 01:59:05,VALID,1000.67,VALID,0,VALID,93.0814,VALID,0,VALID,22.9403,VALID,343,VALID,0.212891,
2010-09-08, 02:00:05,VALID,1000.7,VALID,0,VALID,93.0661,VALID,0,VALID,22.9598,VALID,343,VALID,0,
2010-09-08, 02:01:05,VALID,1000.72,VALID,0,VALID,93.089,VALID,0,VALID,22.9403,VALID,343,VALID,0,
2010-09-08, 02:02:05,VALID,1000.75,VALID,0,VALID,93.089,VALID,0,VALID,22.919,VALID,343,VALID,0,
2010-09-08, 02:03:05,VALID,1000.74,VALID,0,VALID,93.1043,VALID,0,VALID,22.9403,VALID,343,VALID,0,
2010-09-08, 02:04:05,VALID,1000.77,VALID,0,VALID,93.1043,VALID,0,VALID,22.8995,VALID,343,VALID,0,
2010-09-08, 02:05:05,VALID,1000.77,VALID,0,VALID,93.089,VALID,0,VALID,22.9208,VALID,75,VALID,0.607031,
2010-09-08, 02:06:05,VALID,1000.75,VALID,0,VALID,93.1043,VALID,0,VALID,22.9403,VALID,68,VALID,0.661328,
2010-09-08, 02:07:05,VALID,1000.74,VALID,0,VALID,93.0737,VALID,0,VALID,22.9013,VALID,44,VALID,0.810938,
2010-09-08, 02:08:05,VALID,1000.73,VALID,0,VALID,93.0585,VALID,0,VALID,22.9208,VALID,44,VALID,0.803906,
2010-09-08, 02:09:05,VALID,1000.69,VALID,0,VALID,93.0203,VALID,0,VALID,22.9208,VALID,44,VALID,0.725391,
2010-09-08, 02:10:05,VALID,1000.67,VALID,0,VALID,92.9974,VALID,0,VALID,22.9208,VALID,44,VALID,0.498437,
2010-09-08, 02:11:05,VALID,1000.62,VALID,0,VALID,93.0127,VALID,0,VALID,22.9208,VALID,44,VALID,0.619141,
2010-09-08, 02:12:05,VALID,1000.6,VALID,0,VALID,93.0127,VALID,0,VALID,22.9403,VALID,44,VALID,0.690234,
2010-09-08, 02:13:05,VALID,1000.58,VALID,0,VALID,93.0051,VALID,0,VALID,22.9403,VALID,44,VALID,0.914844,
2010-09-08, 02:14:05,VALID,1000.56,VALID,0,VALID,93.028,VALID,0,VALID,22.9208,VALID,44,VALID,0.73125,
2010-09-08, 02:15:05,VALID,1000.53,VALID,0,VALID,93.0203,VALID,0,VALID,22.9403,VALID,44,VALID,0.553125,
2010-09-08, 02:16:05,VALID,1000.52,VALID,0,VALID,93.0127,VALID,0,VALID,22.9598,VALID,44,VALID,0.411719,
2010-09-08, 02:17:05,VALID,1000.53,VALID,0,VALID,93.028,VALID,0,VALID,22.9598,VALID,44,VALID,0.105469,
2010-09-08, 02:18:05,VALID,1000.51,VALID,0,VALID,93.028,VALID,0,VALID,22.9385,VALID,44,VALID,0.208984,
2010-09-08, 02:19:05,VALID,1000.48,VALID,0,VALID,93.0585,VALID,0,VALID,22.9988,VALID,44,VALID,0.7,
2010-09-08, 02:20:05,VALID,1000.48,VALID,0,VALID,93.0737,VALID,0,VALID,22.9988,VALID,44,VALID,0.627734,
2010-09-08, 02:21:05,VALID,1000.45,VALID,0,VALID,93.0814,VALID,0,VALID,23.0183,VALID,44,VALID,0.444531,
2010-09-08, 02:22:05,VALID,1000.45,VALID,0,VALID,93.0737,VALID,0,VALID,23.0183,VALID,44,VALID,0.248437,
2010-09-08, 02:23:05,VALID,1000.4,VALID,0,VALID,93.0585,VALID,0,VALID,22.9988,VALID,44,VALID,0.0707031,
2010-09-08, 02:24:05,VALID,1000.43,VALID,0,VALID,93.0356,VALID,0,VALID,23.0183,VALID,44,VALID,0,
2010-09-08, 02:25:05,VALID,1000.42,VALID,0,VALID,93.0356,VALID,0,VALID,22.9988,VALID,44,VALID,0,
2010-09-08, 02:26:05,VALID,1000.42,VALID,0,VALID,93.0203,VALID,0,VALID,22.9988,VALID,44,VALID,0,
2010-09-08, 02:27:05,VALID,1000.41,VALID,0,VALID,93.028,VALID,0,VALID,22.9581,VALID,44,VALID,0,
2010-09-08, 02:28:05,VALID,1000.4,VALID,0,VALID,93.0356,VALID,0,VALID,22.9988,VALID,44,VALID,0.286328,
2010-09-08, 02:29:05,VALID,1000.37,VALID,0,VALID,93.0585,VALID,0,VALID,22.9988,VALID,44,VALID,0.501562,
2010-09-08, 02:30:05,VALID,1000.32,VALID,0,VALID,93.0737,VALID,0,VALID,22.9776,VALID,44,VALID,0.419531,
2010-09-08, 02:31:05,VALID,1000.31,VALID,0,VALID,93.089,VALID,0,VALID,22.9776,VALID,44,VALID,0.35625,
2010-09-08, 02:32:05,VALID,1000.28,VALID,0,VALID,93.1195,VALID,0,VALID,22.9776,VALID,44,VALID,0.182422,
2010-09-08, 02:33:05,VALID,1000.25,VALID,0,VALID,93.1271,VALID,0,VALID,22.9776,VALID,44,VALID,0,
2010-09-08, 02:34:05,VALID,1000.24,VALID,0,VALID,93.1577,VALID,0,VALID,22.9793,VALID,44,VALID,0.171094,
2010-09-08, 02:35:05,VALID,1000.27,VALID,0,VALID,93.1577,VALID,0,VALID,22.9793,VALID,44,VALID,0.354297,
2010-09-08, 02:36:05,VALID,1000.27,VALID,0,VALID,93.1958,VALID,0,VALID,22.9988,VALID,44,VALID,0.388281,
2010-09-08, 02:37:05,VALID,1000.31,VALID,0,VALID,93.2111,VALID,0,VALID,22.9988,VALID,44,VALID,0.398438,
2010-09-08, 02:38:05,VALID,1000.29,VALID,0,VALID,93.2187,VALID,0,VALID,22.9793,VALID,44,VALID,0.473437,
2010-09-08, 02:39:05,VALID,1000.31,VALID,0,VALID,93.234,VALID,0,VALID,22.9793,VALID,44,VALID,0.443359,
2010-09-08, 02:40:05,VALID,1000.31,VALID,0,VALID,93.2492,VALID,0,VALID,22.9793,VALID,44,VALID,0.217187,
2010-09-08, 02:41:05,VALID,1000.28,VALID,0,VALID,93.2492,VALID,0,VALID,22.9793,VALID,44,VALID,0,
2010-09-08, 02:42:05,VALID,1000.28,VALID,0,VALID,93.2645,VALID,0,VALID,22.9598,VALID,44,VALID,0,
2010-09-08, 02:43:05,VALID,1000.26,VALID,0,VALID,93.2721,VALID,0,VALID,22.9598,VALID,44,VALID,0,
2010-09-08, 02:44:05,VALID,1000.27,VALID,0,VALID,93.2797,VALID,0,VALID,22.9793,VALID,44,VALID,0,
2010-09-08, 02:45:05,VALID,1000.28,VALID,0,VALID,93.2874,VALID,0,VALID,22.9598,VALID,44,VALID,0,
2010-09-08, 02:46:05,VALID,1000.3,VALID,0,VALID,93.295,VALID,0,VALID,22.9598,VALID,44,VALID,0,
2010-09-08, 02:47:05,VALID,1000.29,VALID,0,VALID,93.3255,VALID,0,VALID,22.9598,VALID,44,VALID,0,
2010-09-08, 02:48:05,VALID,1000.28,VALID,0,VALID,93.356,VALID,0,VALID,22.9793,VALID,44,VALID,0,
2010-09-08, 02:49:05,VALID,1000.26,VALID,0,VALID,93.3713,VALID,0,VALID,22.9988,VALID,44,VALID,0,
2010-09-08, 02:50:05,VALID,1000.27,VALID,0,VALID,93.3789,VALID,0,VALID,22.9793,VALID,44,VALID,0,
2010-09-08, 02:51:05,VALID,1000.23,VALID,0,VALID,93.4094,VALID,0,VALID,22.9988,VALID,44,VALID,0,
2010-09-08, 02:52:05,VALID,1000.21,VALID,0,VALID,93.4171,VALID,0,VALID,22.9988,VALID,44,VALID,0,
2010-09-08, 02:53:05,VALID,1000.23,VALID,0,VALID,93.44,VALID,0,VALID,23.0183,VALID,44,VALID,0,
2010-09-08, 02:54:05,VALID,1000.2,VALID,0,VALID,93.4552,VALID,0,VALID,23.0166,VALID,44,VALID,0,
2010-09-08, 02:55:05,VALID,1000.17,VALID,0,VALID,93.4934,VALID,0,VALID,23.0573,VALID,44,VALID,0,
2010-09-08, 02:56:05,VALID,1000.14,VALID,0,VALID,93.4934,VALID,0,VALID,23.0556,VALID,44,VALID,0,
2010-09-08, 02:57:05,VALID,1000.15,VALID,0,VALID,93.4781,VALID,0,VALID,23.0964,VALID,44,VALID,0.784375,
2010-09-08, 02:58:05,VALID,1000.13,VALID,0,VALID,93.4781,VALID,0,VALID,23.0964,VALID,44,VALID,0.807813,
2010-09-08, 02:59:05,VALID,1000.13,VALID,0,VALID,93.4628,VALID,0,VALID,23.0964,VALID,44,VALID,0.894531,
2010-09-08, 03:00:05,VALID,1000.15,VALID,0,VALID,93.4781,VALID,0,VALID,23.0751,VALID,44,VALID,0.585156,
2010-09-08, 03:01:05,VALID,1000.11,VALID,0,VALID,93.4781,VALID,0,VALID,23.0769,VALID,44,VALID,0.548828,
2010-09-08, 03:02:05,VALID,1000.07,VALID,0,VALID,93.4705,VALID,0,VALID,23.0769,VALID,44,VALID,0.419141,
2010-09-08, 03:03:05,VALID,1000.08,VALID,0,VALID,93.4476,VALID,0,VALID,23.0769,VALID,44,VALID,0.537891,
2010-09-08, 03:04:05,VALID,1000.04,VALID,0,VALID,93.4476,VALID,0,VALID,23.0573,VALID,44,VALID,0.576563,
2010-09-08, 03:05:05,VALID,1000.03,VALID,0,VALID,93.44,VALID,0,VALID,23.0573,VALID,44,VALID,0.534766,
2010-09-08, 03:06:05,VALID,1000.01,VALID,0,VALID,93.4171,VALID,0,VALID,23.0573,VALID,33,VALID,0.75,
2010-09-08, 03:07:04,VALID,999.99,VALID,0,VALID,93.4171,VALID,0,VALID,23.0378,VALID,33,VALID,0.849219,
2010-09-08, 03:08:04,VALID,999.974,VALID,0,VALID,93.4018,VALID,0,VALID,23.0378,VALID,33,VALID,0.899609,
2010-09-08, 03:09:04,VALID,999.953,VALID,0,VALID,93.3789,VALID,0,VALID,22.9988,VALID,33,VALID,0.703516,
2010-09-08, 03:10:04,VALID,999.928,VALID,0,VALID,93.3637,VALID,0,VALID,22.9988,VALID,33,VALID,0.711719,
2010-09-08, 03:11:04,VALID,999.937,VALID,0,VALID,93.3713,VALID,0,VALID,22.9793,VALID,34,VALID,0.767969,
2010-09-08, 03:12:04,VALID,999.934,VALID,0,VALID,93.3713,VALID,0,VALID,22.9793,VALID,34,VALID,0.714453,
2010-09-08, 03:13:04,VALID,999.924,VALID,0,VALID,93.3637,VALID,0,VALID,22.9598,VALID,34,VALID,0.542578,
2010-09-08, 03:14:04,VALID,999.941,VALID,0,VALID,93.3637,VALID,0,VALID,22.9403,VALID,24,VALID,0.565625,
2010-09-08, 03:15:04,VALID,999.905,VALID,0,VALID,93.3179,VALID,0,VALID,22.9013,VALID,21,VALID,0.717969,
2010-09-08, 03:16:04,VALID,999.914,VALID,0,VALID,93.2874,VALID,0,VALID,22.8818,VALID,21,VALID,0.708984,
2010-09-08, 03:17:04,VALID,999.915,VALID,0,VALID,93.2721,VALID,0,VALID,22.8623,VALID,30,VALID,0.741016,
2010-09-08, 03:18:04,VALID,999.917,VALID,0,VALID,93.2263,VALID,0,VALID,22.8623,VALID,44,VALID,0.8875,
2010-09-08, 03:19:04,VALID,999.905,VALID,0,VALID,93.1577,VALID,0,VALID,22.8427,VALID,45,VALID,0.820703,
2010-09-08, 03:20:04,VALID,999.913,VALID,0,VALID,93.1195,VALID,0,VALID,22.8427,VALID,45,VALID,0.934766,
2010-09-08, 03:21:04,VALID,999.911,VALID,0,VALID,93.0814,VALID,0,VALID,22.8232,VALID,45,VALID,0.728125,
2010-09-08, 03:22:04,VALID,999.907,VALID,0,VALID,93.028,VALID,0,VALID,22.8427,VALID,45,VALID,0.482031,
2010-09-08, 03:23:04,VALID,999.898,VALID,0,VALID,92.9898,VALID,0,VALID,22.8427,VALID,45,VALID,0.248828,
2010-09-08, 03:24:04,VALID,999.922,VALID,0,VALID,92.9898,VALID,0,VALID,22.8232,VALID,45,VALID,0,
2010-09-08, 03:25:04,VALID,999.951,VALID,0,VALID,92.9822,VALID,0,VALID,22.8232,VALID,45,VALID,0,
2010-09-08, 03:26:04,VALID,999.917,VALID,0,VALID,92.9822,VALID,0,VALID,22.8037,VALID,45,VALID,0,
2010-09-08, 03:27:04,VALID,999.929,VALID,0,VALID,92.9974,VALID,0,VALID,22.8037,VALID,45,VALID,0,
2010-09-08, 03:28:04,VALID,999.944,VALID,0,VALID,93.0432,VALID,0,VALID,22.8232,VALID,45,VALID,0,
2010-09-08, 03:29:04,VALID,999.947,VALID,0,VALID,93.1043,VALID,0,VALID,22.8232,VALID,45,VALID,0,
2010-09-08, 03:30:04,VALID,999.956,VALID,0,VALID,93.15,VALID,0,VALID,22.8427,VALID,45,VALID,0,
2010-09-08, 03:31:04,VALID,999.976,VALID,0,VALID,93.1958,VALID,0,VALID,22.8427,VALID,45,VALID,0,
2010-09-08, 03:32:04,VALID,1000.01,VALID,0,VALID,93.2416,VALID,0,VALID,22.8427,VALID,45,VALID,0,
2010-09-08, 03:33:04,VALID,1000.04,VALID,0,VALID,93.2568,VALID,0,VALID,22.8427,VALID,45,VALID,0,
2010-09-08, 03:34:04,VALID,1000.05,VALID,0,VALID,93.295,VALID,0,VALID,22.8232,VALID,45,VALID,0,
2010-09-08, 03:35:04,VALID,1000.01,VALID,0,VALID,93.3103,VALID,0,VALID,22.8427,VALID,45,VALID,0,
2010-09-08, 03:36:04,VALID,1000.05,VALID,0,VALID,93.3408,VALID,0,VALID,22.8427,VALID,45,VALID,0,
2010-09-08, 03:37:04,VALID,1000.06,VALID,0,VALID,93.3408,VALID,0,VALID,22.8427,VALID,45,VALID,0,
2010-09-08, 03:38:04,VALID,1000.02,VALID,0,VALID,93.3713,VALID,0,VALID,22.8818,VALID,45,VALID,0.605078,
2010-09-08, 03:39:04,VALID,1000.1,VALID,0,VALID,93.3408,VALID,0,VALID,22.8427,VALID,45,VALID,0.658984,
2010-09-08, 03:40:04,VALID,1000.06,VALID,0,VALID,93.3713,VALID,0,VALID,22.8835,VALID,45,VALID,0.660547,
2010-09-08, 03:41:04,VALID,1000.07,VALID,0,VALID,93.3484,VALID,0,VALID,22.8427,VALID,49,VALID,0.673047,
2010-09-08, 03:42:04,VALID,1000.08,VALID,0,VALID,93.3255,VALID,0,VALID,22.8835,VALID,51,VALID,0.446875,
2010-09-08, 03:43:04,VALID,1000.07,VALID,0,VALID,93.3331,VALID,0,VALID,22.8623,VALID,51,VALID,0.452344,
2010-09-08, 03:44:04,VALID,1000.1,VALID,0,VALID,93.3179,VALID,0,VALID,22.8835,VALID,51,VALID,0.233984,
2010-09-08, 03:45:04,VALID,1000.09,VALID,0,VALID,93.3103,VALID,0,VALID,22.8623,VALID,51,VALID,0.11875,
2010-09-08, 03:46:04,VALID,1000.09,VALID,0,VALID,93.3103,VALID,0,VALID,22.8427,VALID,51,VALID,0.0234375,
2010-09-08, 03:47:04,VALID,1000.13,VALID,0,VALID,93.2874,VALID,0,VALID,22.8427,VALID,51,VALID,0,
2010-09-08, 03:48:04,VALID,1000.11,VALID,0,VALID,93.2721,VALID,0,VALID,22.8427,VALID,51,VALID,0.0101562,
2010-09-08, 03:49:04,VALID,1000.11,VALID,0,VALID,93.2721,VALID,0,VALID,22.8232,VALID,51,VALID,0.283984,